Temperature
22 22 22 22 19 17 20 21 22 22 22 23 23 23 21 21 21 20 20 21 21 21 20 20 20 20 20 20 20 20 20 20 20 19 19 19 19 19 19 19 19 19 19 18 18 18 18 18 18
22 22 22 21 18 19 20 20 21 22 22 23 23 22 21 19 19 19 20 20 21 21 20 20 20 20 20 20 20 20 20 20 20 19 19 19 19 19 19 19 19 19 19 18 18 18 18 18 18
22 22 22 17 18 19 21 21 21 22 22 22 21 21 20 19 19 20 20 20 20 20 20 20 20 20 20 20 20 20 20 20 20 19 19 19 19 19 19 19 19 19 19 18 18 18 18 18 18
22 22 21 17 20 20 20 21 21 21 22 22 21 20 19 19 20 21 21 20 20 20 20 20 20 20 20 20 20 20 20 20 19 19 19 19 19 19 19 19 19 19 19 19 18 18 18 18 18
22 22 17 17 20 20 20 21 22 21 21 21 20 19 19 19 20 21 20 20 20 20 20 20 20 20 20 20 20 20 20 19 19 19 19 19 19 19 19 19 19 19 18 18 18 18 18 18 17
22 18 17 18 20 20 20 21 22 21 21 20 20 19 18 19 20 20 20 20 20 20 20 20 20 20 20 20 20 19 19 19 19 19 19 19 19 19 19 18 18 18 18 18 18 18 18 17 17
20 16 18 20 19 20 21 21 21 20 20 20 20 18 18 18 20 20 20 20 20 20 20 20 19 19 19 19 19 19 19 19 19 19 19 19 18 18 18 18 18 18 18 18 18 18 18 17 17
21 16 19 19 20 20 21 21 20 20 20 20 20 19 18 18 19 20 19 19 19 19 19 19 19 19 19 19 19 19 19 19 19 18 18 18 18 18 18 18 18 18 18 18 18 18 17 17 17
21 16 18 20 20 20 20 20 20 20 20 20 19 20 19 19 19 19 19 19 19 19 19 19 19 19 19 19 19 18 18 18 18 18 18 18 18 18 18 18 18 18 18 18 18 17 17 17 17
20 17 20 20 20 20 20 19 20 20 19 19 19 19 19 18 18 19 19 19 19 19 19 19 19 19 19 18 18 18 18 18 18 18 18 18 18 18 18 18 18 18 18 17 17 17 17 17 17
20 19 20 20 21 21 20 19 20 20 19 19 18 18 18 18 18 19 19 19 19 19 19 19 18 18 18 18 18 18 18 18 18 18 18 18 18 17 17 17 17 17 17 17 17 17 17 17 17
19 19 20 20 21 20 20 19 19 19 19 20 19 19 18 18 18 18 18 18 18 18 18 18 18 18 18 18 18 18 18 18 18 18 17 17 17 17 17 17 17 17 17 17 17 17 17 17 17
19 19 20 20 20 19 19 18 18 18 19 19 19 18 18 18 18 18 18 18 18 18 18 18 18 18 18 18 18 17 17 17 17 17 17 17 17 17 17 17 17 17 17 17 17 17 17 17 17
19 19 19 19 19 19 18 17 18 17 18 18 18 18 18 17 18 18 18 18 18 18 18 18 18 17 17 17 17 17 17 17 17 17 17 16 16 16 16 16 16 16 16 16 16 16 17 17 16
20 19 18 18 19 19 19 18 17 17 17 17 17 17 17 17 17 18 18 18 18 18 18 18 17 17 17 17 17 17 17 16 16 16 16 16 16 16 16 16 16 16 16 16 16 16 16 16 16
19 18 18 19 18 18 19 18 17 17 17 17 17 17 17 17 17 17 17 17 17 17 17 17 17 17 17 16 16 16 16 16 16 16 16 16 16 16 16 16 16 16 16 16 16 16 16 16 16
18 18 19 19 18 18 18 18 17 17 17 16 16 16 17 17 17 17 17 17 17 17 17 17 17 16 16 16 16 16 16 16 16 16 15 15 15 15 15 15 15 15 15 15 16 15 15 15 16
19 19 19 18 18 17 17 17 16 16 16 16 16 16 16 16 17 17 17 17 17 16 16 16 16 16 16 16 16 15 15 15 15 15 15 15 15 15 15 15 15 15 15 15 15 15 15 15 15
19 19 18 18 18 17 17 16 16 16 16 16 16 16 16 16 16 16 16 16 16 16 16 16 16 16 16 15 15 15 15 15 15 14 14 14 14 14 14 14 14 14 14 14 14 14 15 15 15
18 18 18 18 18 17 16 16 16 15 15 16 16 16 16 16 15 15 15 16 16 16 15 15 15 15 15 15 15 15 15 14 14 14 14 13 13 14 14 14 13 13 14 14 14 14 14 14 14
19 18 18 18 17 17 17 16 16 15 15 16 16 15 15 15 15 15 15 15 15 15 15 15 15 15 15 15 14 14 14 14 14 14 13 13 13 13 13 13 13 13 13 13 13 13 13 13 13
19 19 18 18 17 16 17 16 16 15 15 15 15 15 15 15 15 15 15 15 15 15 14 15 15 15 15 14 14 14 14 13 13 13 13 13 12 12 12 12 12 12 13 13 13 13 13 13 13
18 18 18 17 16 16 15 16 15 14 15 15 15 15 15 15 15 15 15 15 15 15 14 14 14 14 14 14 14 13 13 13 13 12 12 12 12 12 12 12 12 12 12 12 12 12 12 12 12
18 17 16 14 14 16 16 15 15 14 14 14 14 15 15 15 15 14 14 14 14 14 14 14 14 13 13 13 13 13 13 13 12 12 12 12 11 11 11 11 11 11 11 11 11 12 12 12 12
18 16 16 16 15 15 15 15 15 15 15 14 14 14 14 14 14 14 14 14 14 13 13 13 13 13 13 13 13 13 12 12 12 12 11 11 11 11 11 11 11 11 11 11 11 11 11 11 11
17 17 16 16 16 15 15 15 15 15 14 15 15 14 14 14 14 13 13 13 13 13 13 13 13 12 12 12 12 12 12 12 11 11 11 11 11 10 10 10 10 10 10 10 10 10 10 10 11
17 16 15 14 15 15 14 15 15 14 14 14 14 13 13 13 13 13 13 13 13 13 12 12 12 12 12 12 11 11 11 11 11 11 10 10 10 10 10 10 10 10 10 10 10 10 10 10 10
17 14 13 14 15 15 16 15 14 15 14 13 13 13 13 13 13 13 13 13 12 12 12 12 12 11 11 11 11 11 11 10 10 10 10 10 10 9 9 9 10 10 9 9 10 10 10 10 10
17 16 14 13 14 14 15 15 15 14 14 13 12 12 13 12 12 12 12 12 12 12 12 11 11 11 11 10 10 10 10 10 10 10 9 9 9 9 9 9 9 9 9 9 9 9 9 9 9
17 16 14 15 14 13 14 14 14 13 13 13 12 12 12 12 12 12 12 12 11 11 11 11 11 11 10 10 10 10 10 10 9 9 9 9 9 9 9 9 9 9 9 9 9 9 9 9 9
Wind_Speed
7 4 2 4 5 5 1 4 2 1 1 2 6 6 7 4 2 2 3 11 15 15 16 18 19 19 19 19 19 19 19 19 19 19 19 18 18 17 16 15 14 13 13 12 12 12 12 12 12
3 1 4 5 5 2 4 4 2 1 3 5 6 6 6 4 4 5 6 10 15 15 16 17 19 19 19 18 18 18 18 18 18 18 18 17 16 15 15 14 13 13 12 12 11 11 12 12 11
1 3 5 5 4 4 2 1 2 4 5 4 5 6 4 3 4 4 7 14 13 13 15 17 18 18 18 18 18 18 18 17 17 17 16 16 15 14 14 13 13 12 12 11 11 11 10 10 10
3 5 5 5 1 4 4 2 3 3 4 5 5 6 4 4 2 7 13 15 14 11 14 16 17 17 17 17 17 17 17 16 16 15 15 14 14 13 13 12 12 11 11 10 10 10 9 9 8
4 5 6 3 3 4 3 3 2 2 3 4 5 5 4 5 10 14 14 14 14 11 12 15 16 16 16 16 16 16 15 15 14 14 13 13 13 12 12 11 10 10 10 10 9 9 8 7 7
5 5 5 0 3 4 3 1 3 4 4 4 5 5 3 5 10 13 12 11 11 11 11 14 15 15 15 14 14 14 14 13 13 12 12 11 11 11 10 10 9 9 8 8 8 7 7 6 5
5 5 4 2 2 3 2 2 3 5 5 3 4 5 4 6 8 12 11 10 9 10 10 10 13 13 13 13 13 13 12 12 11 11 10 10 9 9 9 8 8 8 7 7 7 6 5 4 4
5 5 3 1 1 2 2 2 3 5 4 2 3 7 7 8 11 12 12 10 9 8 7 7 9 10 11 11 12 12 11 11 11 10 9 9 8 8 8 7 7 7 6 6 6 5 4 3 2
4 5 1 3 4 2 1 2 3 3 5 3 3 2 8 15 15 13 12 9 8 8 5 5 6 7 8 8 9 10 10 10 10 9 8 7 6 6 6 6 7 7 7 6 6 5 5 4 3
5 3 4 4 4 3 1 3 3 4 4 4 5 8 15 16 14 14 13 11 9 8 6 4 5 5 6 6 6 6 6 6 7 7 6 5 4 4 4 5 6 6 7 7 6 6 5 4 3
4 4 4 2 2 3 3 3 2 6 3 4 10 16 16 15 13 12 10 9 8 7 6 4 4 5 5 4 5 4 4 4 4 4 5 5 4 3 2 3 4 4 4 5 5 5 4 4 3
2 2 2 2 2 3 4 4 4 3 2 6 11 16 15 15 13 11 10 8 7 6 5 3 3 4 4 4 4 4 3 3 2 3 3 3 2 2 2 3 3 3 3 3 3 3 4 4 5
1 2 2 2 6 5 7 7 5 4 5 10 13 13 12 11 9 7 7 7 7 6 4 3 3 2 3 3 3 3 2 2 2 2 3 4 3 2 3 2 2 2 2 2 3 3 3 3 4
1 1 3 5 5 4 7 5 5 3 7 11 13 11 10 9 9 7 7 7 6 5 4 4 4 3 3 3 2 2 2 1 1 1 2 3 3 2 2 1 1 1 2 2 2 2 2 2 3
1 3 6 5 4 2 6 5 2 4 8 10 9 10 10 8 8 8 7 6 6 5 5 4 4 4 3 3 2 2 2 2 1 1 1 1 1 1 1 1 1 2 1 1 1 1 1 2 2
4 5 3 3 2 2 5 3 2 5 9 9 9 9 9 7 6 6 6 5 4 4 4 3 3 4 3 3 3 3 3 3 2 2 2 2 1 0 0 0 1 1 0 0 1 1 0 1 2
6 3 1 2 1 2 4 4 4 5 7 8 8 8 9 7 6 5 6 6 5 4 4 4 4 4 3 4 4 4 4 4 4 4 4 4 3 1 0 0 1 1 0 0 1 0 1 1 2
2 2 1 2 1 3 3 2 3 5 6 7 7 7 7 7 6 5 5 5 6 5 4 4 4 4 4 4 3 4 4 4 5 5 5 5 4 3 1 0 1 1 0 0 1 1 1 1 2
4 3 2 3 1 3 4 2 4 5 5 6 7 7 8 6 4 4 4 5 6 5 4 4 4 3 3 2 2 2 2 2 3 4 6 6 5 4 3 2 2 1 0 1 1 1 1 1 1
4 3 1 1 1 3 3 1 2 4 6 6 7 7 7 5 5 5 4 4 4 5 4 3 3 3 3 2 2 2 2 2 2 4 6 7 6 6 4 4 3 2 1 1 1 1 1 1 1
3 5 5 3 2 4 4 2 1 2 2 3 4 4 5 7 7 6 4 3 4 4 4 4 3 3 3 2 3 3 3 3 3 3 3 5 6 6 5 5 4 3 2 2 1 1 1 1 1
3 4 6 5 4 1 1 2 4 3 3 4 4 4 5 5 6 6 6 4 4 4 4 4 3 4 3 3 3 3 3 2 1 1 2 4 6 7 6 5 4 3 2 2 2 1 1 1 1
3 3 5 4 5 2 3 2 5 1 4 5 5 5 5 6 7 7 7 6 5 5 5 4 4 4 3 3 3 4 3 2 1 2 3 3 4 6 6 6 5 4 3 3 3 2 1 0 1
6 6 7 6 5 1 2 3 5 3 5 5 4 3 4 5 6 6 5 6 5 5 5 5 5 4 3 4 4 4 4 4 3 3 3 3 3 4 6 5 5 4 3 3 3 2 2 1 0
5 6 4 4 3 4 1 2 6 4 4 4 4 4 4 5 7 7 8 7 6 6 5 4 5 4 3 4 4 4 4 4 3 2 2 2 2 3 4 4 4 3 3 4 3 2 2 2 1
3 7 7 5 5 4 1 4 5 2 2 2 2 2 3 5 5 6 7 7 7 7 5 5 5 4 3 4 4 4 4 3 2 2 1 1 1 2 2 4 4 4 5 5 4 3 3 2 2
5 3 5 6 3 0 3 4 4 1 2 1 3 4 5 5 5 5 5 5 5 5 5 5 5 3 3 3 4 4 3 3 2 2 2 1 1 1 2 3 3 4 5 4 4 3 4 3 3
4 7 6 5 5 3 3 4 4 3 2 1 3 4 4 4 4 4 4 5 4 4 4 3 4 4 3 3 3 3 3 2 2 2 2 2 2 2 2 3 3 4 4 4 3 3 3 3 3
3 4 5 4 4 5 3 5 3 4 4 3 4 4 4 5 5 4 4 4 5 4 4 4 3 4 3 3 3 3 2 2 3 2 2 2 2 2 3 3 3 4 4 4 4 4 4 4 4
2 4 6 4 3 3 3 5 4 2 3 4 4 3 3 4 5 5 5 5 4 4 3 4 3 3 3 3 3 3 2 3 3 2 2 2 2 2 3 3 3 4 4 4 4 4 4 4 4
Wind_Direction
313 324 80 65 58 52 278 264 242 302 75 102 121 115 119 112 156 167 105 134 133 139 144 144 142 136 131 128 126 125 124 123 123 124 126 127 130 132 134 134 133 131 128 125 124 123 123 123 126
313 18 61 61 88 76 282 268 256 197 134 101 82 79 82 73 66 95 114 132 134 137 141 144 143 139 135 132 131 130 129 128 127 127 128 130 132 133 134 134 134 132 130 129 128 127 127 128 131
298 59 82 75 107 170 238 268 124 80 68 83 86 65 75 85 108 113 132 135 131 133 138 146 144 141 139 137 136 135 133 133 132 131 132 133 133 133 134 135 135 134 134 134 133 132 132 133 136
85 53 57 73 157 225 223 198 124 102 53 54 94 82 62 30 104 124 132 135 131 130 137 145 144 143 143 142 141 140 139 138 137 137 137 137 136 136 137 137 138 139 139 139 139 137 136 136 138
60 77 65 44 286 274 255 244 167 115 89 74 90 90 46 18 104 121 131 135 134 132 136 144 145 145 146 146 146 145 145 144 143 142 141 140 140 140 140 141 143 144 145 145 145 142 139 138 139
56 68 84 52 295 293 286 290 122 102 97 88 89 92 65 103 116 126 128 130 134 135 134 143 147 149 151 151 150 151 150 150 149 147 146 146 146 146 146 147 149 151 152 153 153 151 147 144 141
99 93 132 184 279 308 320 20 108 112 106 101 109 108 113 131 125 125 122 121 125 130 131 137 148 151 154 155 155 155 156 154 153 154 154 155 156 156 157 158 160 163 164 164 164 163 161 159 156
116 101 102 202 208 273 316 33 57 91 106 79 99 137 153 153 132 121 119 120 123 126 128 130 140 146 151 156 160 160 160 161 160 162 165 167 170 172 174 173 176 179 181 183 183 184 186 187 195
88 75 130 217 193 226 319 83 59 53 86 57 46 114 133 135 130 126 126 126 132 134 128 128 129 134 143 152 163 165 167 169 168 170 174 173 176 186 193 192 195 199 202 204 205 206 209 218 239
88 123 224 225 199 181 138 105 121 94 73 74 82 99 125 136 139 141 146 148 151 153 148 138 138 140 144 155 155 157 162 168 170 171 174 166 175 193 209 214 214 217 218 218 221 225 228 234 245
132 182 239 273 215 152 124 96 79 119 126 161 146 138 142 143 146 149 151 150 154 155 150 145 143 142 145 143 144 145 146 152 161 171 174 172 182 200 229 244 247 244 236 230 233 236 233 232 240
138 269 244 283 67 95 122 115 80 69 154 137 141 143 147 152 155 156 152 148 145 141 136 130 136 137 135 130 135 136 137 149 164 181 178 168 177 205 230 235 241 242 233 230 234 234 240 242 250
154 296 351 60 72 85 85 77 89 77 98 118 128 136 149 146 141 136 134 135 132 130 129 125 115 116 123 119 122 126 142 162 177 192 206 195 195 214 230 240 238 232 218 217 235 241 249 253 261
160 72 30 30 61 66 94 73 73 105 115 123 133 141 145 143 138 133 132 136 141 143 135 120 120 118 111 113 116 123 141 155 143 209 246 222 219 222 223 244 258 241 212 208 231 241 261 273 266
77 63 29 16 47 92 98 59 72 134 128 131 138 140 137 134 137 148 155 149 150 148 140 142 137 123 122 122 120 107 95 83 55 3 343 319 213 204 217 222 264 268 232 174 183 213 265 274 271
59 61 45 334 45 70 107 162 177 148 144 147 150 149 147 145 148 150 144 136 138 136 132 133 127 123 125 116 104 89 80 79 62 48 31 19 34 144 124 298 281 295 324 214 197 186 264 281 284
39 75 87 317 15 92 130 182 182 165 158 159 163 161 159 157 150 149 146 138 128 121 120 107 95 107 110 101 93 85 75 63 50 43 37 23 16 12 55 339 299 291 285 281 268 238 199 248 270
184 138 193 253 296 114 133 169 159 168 170 172 171 168 168 170 169 156 145 129 119 106 100 99 91 91 96 90 83 72 66 56 53 45 37 33 24 23 30 333 299 276 257 278 278 249 231 245 270
156 155 205 260 253 130 151 150 179 174 176 186 185 181 178 177 156 139 132 123 116 107 101 103 104 103 105 101 99 92 77 50 41 39 41 42 36 31 30 16 7 1 284 273 259 227 223 250 249
146 155 201 318 37 131 130 99 192 190 202 201 195 195 187 166 153 150 137 125 127 127 117 116 116 112 103 100 108 111 110 80 59 39 39 38 37 36 36 26 9 5 18 12 333 248 200 215 214
183 180 188 181 69 60 102 10 265 251 236 214 192 190 195 181 176 171 163 150 137 138 136 134 114 94 88 92 92 88 72 59 44 34 30 22 30 34 36 29 21 7 12 0 329 297 209 202 218
226 208 165 148 116 359 86 243 274 259 257 225 213 201 196 186 181 178 169 165 155 144 121 114 108 96 92 100 110 113 109 98 66 45 37 24 30 33 36 29 22 13 5 3 342 339 260 190 220
181 104 115 112 124 83 28 146 285 319 262 250 231 218 201 184 178 182 174 171 150 128 116 111 97 84 86 94 107 110 102 104 94 69 55 36 24 28 30 28 21 13 6 5 356 349 358 296 202
125 78 64 56 75 70 254 172 276 242 239 253 238 223 198 181 176 173 159 144 131 119 110 106 97 78 71 86 98 115 119 117 104 76 52 33 21 17 20 24 18 10 11 7 357 357 16 21 44
90 95 42 5 11 252 248 180 250 258 246 246 244 234 194 174 167 165 156 153 146 133 123 116 110 95 80 85 87 98 109 111 108 100 71 46 24 12 4 9 6 2 9 9 7 13 20 20 36
160 139 158 195 218 264 310 234 256 275 289 265 205 155 132 139 142 151 154 157 155 147 137 125 117 110 104 97 87 82 88 93 94 91 91 65 30 352 347 2 8 9 18 22 19 21 17 25 26
127 135 154 130 133 166 272 278 298 318 11 47 111 121 131 134 130 136 140 144 148 143 137 134 126 115 106 104 97 85 82 88 89 72 64 55 23 5 5 10 14 15 23 23 21 25 16 18 16
122 140 103 118 150 232 275 258 247 237 240 176 137 139 136 131 124 119 124 132 134 131 119 108 110 113 108 104 97 97 89 87 84 74 55 39 25 27 22 23 22 24 25 23 26 21 13 20 5
97 94 103 112 145 161 237 269 248 225 202 178 164 158 151 141 130 120 112 117 117 115 117 114 106 105 102 98 96 95 86 85 84 76 53 38 37 34 30 25 22 24 22 17 24 16 13 19 8
151 152 144 147 198 171 178 263 320 213 170 155 154 143 134 127 122 119 114 109 103 107 112 118 117 114 120 124 109 100 88 81 77 69 49 47 37 32 29 25 24 21 21 20 24 15 16 17 7
Height
1505 1505 1507 1509 1513 1526 1526 1517 1510 1508 1506 1506 1508 1510 1513 1517 1521 1525 1521 1523 1527 1530 1533 1537 1540 1543 1545 1547 1549 1550 1552 1554 1555 1557 1558 1560 1561 1563 1564 1565 1566 1567 1568 1569 1570 1570 1570 1571 1571
1504 1505 1508 1509 1521 1533 1526 1514 1510 1506 1506 1506 1509 1511 1514 1517 1518 1519 1520 1525 1529 1532 1534 1538 1541 1544 1546 1548 1550 1552 1553 1555 1557 1558 1559 1561 1562 1564 1565 1566 1567 1568 1569 1570 1570 1571 1571 1572 1572
1504 1505 1508 1512 1524 1529 1519 1510 1507 1506 1506 1507 1510 1513 1515 1518 1518 1520 1522 1526 1530 1533 1536 1539 1542 1545 1547 1549 1551 1553 1555 1556 1558 1559 1561 1562 1564 1565 1566 1567 1568 1569 1569 1570 1571 1572 1572 1572 1573
1504 1506 1508 1517 1520 1518 1513 1508 1506 1506 1507 1508 1511 1515 1518 1520 1520 1522 1524 1528 1532 1535 1538 1541 1543 1546 1549 1551 1553 1554 1556 1558 1559 1561 1562 1563 1565 1566 1567 1568 1569 1570 1570 1571 1572 1572 1573 1573 1574
1504 1506 1515 1524 1519 1513 1509 1507 1506 1507 1508 1511 1512 1517 1520 1522 1522 1524 1527 1530 1533 1536 1539 1542 1545 1547 1550 1552 1554 1555 1557 1559 1560 1562 1563 1564 1566 1567 1568 1569 1570 1570 1571 1571 1572 1573 1573 1574 1575
1505 1507 1524 1527 1519 1512 1508 1506 1506 1508 1510 1513 1514 1518 1522 1523 1525 1527 1529 1532 1536 1538 1541 1543 1546 1548 1551 1553 1554 1556 1558 1560 1561 1563 1564 1566 1567 1568 1569 1569 1570 1571 1571 1572 1572 1573 1574 1574 1575
1506 1513 1522 1520 1518 1513 1508 1507 1507 1509 1512 1514 1515 1519 1522 1525 1527 1529 1531 1534 1537 1540 1542 1544 1546 1549 1551 1553 1555 1557 1558 1560 1562 1563 1564 1566 1567 1568 1569 1569 1570 1571 1571 1572 1572 1573 1574 1574 1575
1505 1511 1518 1520 1517 1513 1508 1507 1509 1510 1513 1515 1516 1518 1521 1524 1527 1529 1532 1536 1538 1541 1543 1545 1547 1549 1551 1553 1555 1557 1559 1560 1562 1563 1564 1566 1567 1568 1569 1569 1570 1571 1571 1572 1572 1573 1574 1574 1575
1505 1516 1521 1516 1514 1510 1507 1508 1510 1511 1513 1515 1516 1518 1521 1524 1527 1530 1533 1536 1539 1541 1543 1546 1548 1550 1552 1554 1555 1557 1559 1560 1561 1563 1564 1565 1566 1567 1568 1569 1569 1570 1571 1571 1572 1572 1573 1573 1574
1506 1518 1513 1508 1507 1507 1507 1508 1511 1512 1514 1516 1517 1519 1522 1525 1528 1530 1533 1535 1538 1541 1543 1546 1548 1550 1552 1554 1555 1557 1558 1559 1561 1562 1563 1564 1565 1566 1567 1568 1568 1569 1570 1570 1571 1571 1572 1572 1573
1506 1510 1507 1505 1505 1505 1507 1510 1511 1513 1516 1516 1517 1519 1523 1526 1529 1531 1534 1536 1539 1542 1543 1545 1548 1550 1552 1553 1555 1556 1557 1559 1560 1561 1562 1563 1564 1565 1566 1567 1567 1568 1568 1569 1569 1570 1570 1571 1571
1506 1506 1505 1504 1504 1505 1507 1509 1512 1514 1515 1516 1518 1519 1523 1526 1529 1532 1535 1537 1540 1542 1543 1546 1547 1549 1551 1553 1554 1555 1557 1558 1559 1560 1560 1561 1562 1563 1564 1565 1566 1566 1567 1567 1567 1568 1568 1569 1569
1506 1506 1505 1505 1505 1506 1508 1511 1513 1516 1516 1517 1520 1522 1524 1527 1530 1533 1536 1538 1540 1542 1544 1545 1547 1549 1551 1552 1553 1554 1555 1557 1558 1559 1560 1560 1561 1562 1562 1563 1564 1564 1565 1565 1565 1566 1566 1567 1568
1506 1506 1506 1506 1506 1508 1511 1514 1515 1518 1518 1519 1522 1524 1526 1529 1531 1533 1536 1538 1540 1542 1543 1545 1546 1548 1550 1551 1552 1553 1554 1555 1557 1557 1558 1559 1559 1560 1560 1561 1561 1562 1562 1563 1563 1563 1564 1564 1565
1506 1508 1509 1509 1509 1511 1512 1518 1519 1519 1520 1521 1524 1526 1528 1530 1532 1534 1536 1538 1540 1542 1543 1544 1546 1547 1549 1550 1551 1552 1553 1554 1554 1555 1556 1556 1557 1557 1558 1558 1559 1559 1559 1560 1560 1560 1561 1561 1562
1507 1514 1519 1514 1512 1513 1517 1525 1520 1520 1521 1523 1525 1527 1530 1531 1533 1535 1536 1538 1540 1541 1542 1544 1545 1546 1548 1549 1550 1551 1552 1552 1552 1553 1553 1554 1554 1554 1555 1555 1555 1556 1556 1556 1556 1557 1558 1558 1558
1517 1522 1521 1517 1513 1514 1517 1522 1520 1521 1522 1524 1526 1527 1529 1531 1532 1534 1536 1537 1539 1541 1542 1543 1544 1546 1547 1548 1549 1549 1550 1550 1550 1550 1551 1551 1551 1551 1551 1552 1552 1552 1552 1552 1553 1553 1554 1554 1555
1520 1521 1521 1520 1516 1516 1519 1521 1521 1521 1522 1523 1525 1527 1528 1530 1532 1534 1535 1536 1538 1539 1541 1543 1544 1545 1546 1547 1548 1548 1549 1549 1549 1548 1548 1548 1549 1549 1549 1549 1548 1549 1549 1549 1549 1550 1550 1550 1551
1512 1518 1521 1519 1515 1517 1521 1522 1522 1521 1523 1524 1525 1526 1527 1529 1532 1533 1534 1535 1537 1539 1540 1542 1543 1544 1545 1545 1546 1547 1547 1547 1547 1547 1547 1547 1547 1547 1546 1546 1545 1546 1546 1546 1546 1546 1546 1546 1547
1512 1518 1520 1518 1515 1518 1522 1524 1522 1521 1522 1522 1524 1525 1526 1528 1530 1532 1533 1535 1536 1538 1539 1541 1542 1543 1544 1545 1545 1546 1546 1546 1546 1546 1547 1546 1545 1545 1544 1543 1543 1543 1543 1543 1543 1543 1543 1543 1544
1512 1516 1517 1519 1518 1519 1523 1527 1525 1522 1522 1523 1524 1525 1526 1527 1528 1530 1532 1533 1535 1536 1537 1539 1541 1541 1542 1544 1544 1545 1545 1545 1545 1546 1546 1545 1544 1544 1543 1542 1541 1540 1540 1540 1540 1539 1540 1540 1541
1513 1507 1510 1515 1523 1530 1526 1537 1527 1523 1522 1521 1522 1523 1524 1526 1527 1528 1530 1532 1533 1535 1535 1537 1539 1540 1541 1543 1543 1544 1544 1544 1544 1545 1544 1544 1543 1542 1542 1540 1539 1539 1538 1537 1537 1537 1537 1537 1537
1507 1506 1510 1515 1524 1531 1531 1536 1531 1524 1523 1520 1519 1520 1522 1524 1525 1527 1529 1530 1531 1533 1534 1536 1537 1538 1540 1541 1542 1542 1542 1543 1543 1544 1543 1543 1542 1541 1540 1539 1538 1537 1536 1535 1535 1534 1534 1534 1534
1504 1510 1516 1524 1530 1539 1533 1536 1533 1527 1521 1518 1517 1518 1520 1522 1523 1525 1527 1529 1530 1532 1534 1535 1536 1538 1538 1539 1540 1541 1541 1542 1542 1542 1542 1541 1541 1540 1539 1538 1537 1536 1535 1533 1532 1532 1531 1531 1531
1506 1519 1535 1536 1545 1542 1532 1534 1531 1519 1516 1516 1516 1516 1517 1519 1521 1523 1525 1528 1530 1531 1533 1534 1536 1537 1538 1539 1540 1540 1540 1541 1541 1541 1541 1540 1540 1539 1538 1537 1536 1535 1533 1532 1531 1530 1529 1529 1529
1508 1515 1534 1541 1545 1541 1533 1534 1525 1516 1515 1514 1515 1516 1516 1518 1520 1522 1524 1527 1529 1530 1532 1533 1535 1536 1537 1538 1539 1539 1539 1540 1540 1540 1540 1540 1539 1538 1538 1536 1535 1534 1533 1531 1530 1529 1528 1527 1527
1509 1516 1517 1531 1536 1541 1537 1529 1521 1515 1515 1514 1515 1516 1517 1518 1520 1522 1524 1527 1528 1530 1532 1533 1534 1535 1536 1537 1538 1538 1539 1539 1539 1539 1539 1539 1538 1538 1537 1536 1535 1534 1532 1531 1529 1528 1527 1526 1525
1504 1511 1523 1531 1541 1543 1534 1530 1527 1518 1516 1516 1516 1517 1517 1519 1521 1523 1525 1527 1528 1530 1532 1533 1534 1535 1536 1537 1538 1538 1538 1539 1539 1539 1539 1538 1538 1537 1537 1536 1535 1533 1532 1530 1529 1527 1526 1525 1524
1508 1513 1520 1530 1531 1539 1541 1534 1516 1515 1514 1515 1516 1517 1518 1519 1521 1524 1525 1527 1528 1530 1531 1533 1534 1535 1536 1537 1538 1538 1538 1538 1538 1538 1538 1538 1538 1537 1537 1536 1534 1533 1531 1529 1528 1527 1525 1524 1522
1504 1508 1517 1525 1530 1533 1536 1533 1514 1513 1513 1514 1516 1517 1519 1520 1522 1524 1526 1527 1529 1530 1532 1533 1534 1535 1536 1536 1537 1538 1538 1538 1538 1538 1538 1538 1537 1537 1536 1535 1534 1532 1531 1529 1528 1526 1525 1523 1521